Home   Weather   USA   Kansas City   Past weeks
Flag for USA

Past Weather in Kansas City, Missouri, USA — February 2022

Currently: 82 °F. Sunny. (Weather station: Kansas City Downtown Airport, USA). See more current weather

February 2022 Weather in Kansas City — Graph

°F

High & Low Weather Summary for February 2022

 TemperatureHumidityPressure
High75 °F (Feb 8, 12:54 pm)92% (Feb 22, 3:28 am)30.69 "Hg (Feb 22, 3:28 am)
Low5 °F (Feb 23, 5:54 am)13% (Feb 28, 3:54 pm)29.56 "Hg (Feb 21, 2:54 pm)
Average32 °F56%30.19 "Hg
* Reported Feb 1 12:54 am — Feb 28 11:54 pm, Kansas City. Weather by CustomWeather, © 2024

Note: Actual official high and low records may vary slightly from our data, if they occured in-between our weather recording intervals... More about our weather records

Kansas City Weather History for February 1, 2022

Scroll right to see more
 ConditionsComfort  
Time TempWeatherWind HumidityBarometerVisibility
12:54 am
Tue, Feb 1
56 °FClear.18 mph55%29.75 "Hg10 mi
1:54 am55 °FClear.16 mph62%29.75 "Hg10 mi
2:54 am53 °FClear.15 mph72%29.77 "Hg10 mi
3:54 am53 °FPassing clouds.13 mph74%29.79 "Hg10 mi
4:20 am53 °FPassing clouds.7 mph74%29.82 "Hg10 mi
4:54 am52 °FOvercast.7 mph77%29.81 "Hg10 mi
5:28 am51 °FMostly cloudy.5 mph80%29.82 "Hg10 mi
5:54 am50 °FOvercast.3 mph83%29.82 "Hg10 mi
6:33 am50 °FMostly cloudy.6 mph83%29.84 "Hg10 mi
6:54 am51 °FOvercast.7 mph80%29.85 "Hg10 mi
7:54 am50 °FOvercast.7 mph68%29.87 "Hg10 mi
8:54 am48 °FMostly cloudy.7 mph56%29.91 "Hg10 mi
9:54 am47 °FOvercast.9 mph52%29.93 "Hg10 mi
10:54 am46 °FOvercast.10 mph51%29.95 "Hg10 mi
11:54 am45 °FOvercast.10 mph49%29.96 "Hg10 mi
12:54 pm45 °FOvercast.14 mph49%29.95 "Hg10 mi
1:54 pm44 °FLight rain. Overcast.10 mph53%29.96 "Hg10 mi
2:54 pm41 °FLight rain. Overcast.9 mph67%29.98 "Hg10 mi
3:54 pm40 °FOvercast.16 mph68%29.98 "Hg10 mi
4:54 pm39 °FLight rain. Overcast.15 mph60%30.01 "Hg10 mi
5:54 pm37 °FLight rain. Overcast.16 mph62%30.01 "Hg10 mi
6:54 pm36 °FOvercast.15 mph62%30.07 "Hg10 mi
8:12 pm34 °FLight snow. Overcast.20 mph64%30.08 "Hg4 mi
8:54 pm32 °FLight snow. Overcast.22 mph64%30.11 "Hg5 mi
9:13 pm31 °FLight snow. Overcast.12 mph73%30.11 "Hg2 mi
9:25 pm30 °FLight snow. Ice fog.16 mph79%30.11 "Hg1 mi
9:54 pm29 °FLight snow. Overcast.13 mph82%30.12 "Hg2 mi
10:39 pm29 °FLight snow. Mostly cloudy.18 mph72%30.13 "Hg5 mi
10:54 pm29 °FOvercast.14 mph72%30.17 "Hg10 mi
11:54 pm29 °FOvercast.18 mph61%30.14 "Hg10 mi
Weather by CustomWeather, © 2024

See weather overview